CW6734 Weather Reports


Display with metric or nautical units.
time (UTC)temp
F
wind
direction
speed
MPH
gust
MPH
rain 1hr
in
rain 24hr
in
rain mn
in
humidity
%
barometer
mb
20171023204711 58 173 2.0 12.0 0.00 0.26 0.26 89 1005.8
20171023204411 58 253 3.0 12.0 0.00 0.26 0.26 89 1005.8
20171023204113 58 290 2.0 12.0 0.00 0.26 0.26 89 1005.8
20171023203815 58 299 2.0 12.0 0.00 0.26 0.26 89 1005.6
20171023203503 59 242 2.0 12.0 0.00 0.26 0.26 89 1005.3
20171023203151 59 223 2.0 8.0 0.00 0.26 0.26 89 1005.2
20171023202843 58 317 2.0 12.0 0.00 0.26 0.26 89 1005.1
20171023202536 59 255 2.0 12.0 0.00 0.26 0.26 89 1005.1
20171023201929 59 211 3.0 12.0 0.00 0.26 0.26 89 1005.2
20171023201321 59 290 3.0 12.0 0.05 0.26 0.26 89 1005.2
20171023201022 59 238 3.0 11.0 0.06 0.26 0.26 89 1005.3
20171023200409 59 225 2.0 11.0 0.06 0.26 0.26 89 1005.1
20171023200109 59 252 3.0 15.0 0.06 0.26 0.26 89 1005.1
20171023195758 59 251 3.0 15.0 0.00 0.24 0.25 89 1005.4
20171023195143 60 251 4.0 15.0 0.00 0.24 0.25 88 1005.6
20171023194530 60 188 4.0 15.0 0.05 0.24 0.24 88 1005.3
20171023194216 61 249 3.0 14.0 0.06 0.24 0.24 88 1005.1
20171023193603 62 212 2.0 13.0 0.17 0.24 0.24 90 1004.9
20171023193254 62 253 2.0 13.0 0.42 0.23 0.24 90 1004.8
20171023192944 62 261 2.0 13.0 0.26 0.21 0.21 90 1004.5
20171023192636 62 201 2.0 13.0 0.34 0.19 0.20 90 1004.2
20171023191106 62 155 2.0 15.0 0.00 0.16 0.17 89 1004.1
20171023190143 62 63 5.0 19.0 0.00 0.16 0.17 89 1004.5
20171023185232 62 165 4.0 19.0 0.00 0.16 0.17 89 1005.1
20171023184312 62 186 4.0 14.0 0.00 0.16 0.16 89 1005.5
20171023183711 62 163 4.0 22.0 0.00 0.16 0.16 89 1005.4
20171023183358 62 111 4.0 22.0 0.00 0.16 0.16 89 1005.1
20171023182738 62 171 5.0 22.0 0.04 0.16 0.16 89 1005.6
20171023182437 62 21 5.0 22.0 0.04 0.16 0.16 89 1006.1
20171023181530 62 124 5.0 15.0 0.04 0.16 0.16 89 1006.6
20171023180931 62 194 3.0 13.0 0.00 0.14 0.15 90 1006.7
20171023180630 62 107 3.0 10.0 0.00 0.14 0.15 90 1006.8
20171023180326 62 157 3.0 10.0 0.00 0.14 0.15 90 1006.9
20171023180024 62 25 3.0 10.0 0.00 0.14 0.15 90 1007.0
20171023175724 62 103 3.0 10.0 0.00 0.13 0.13 90 1007.2
20171023174802 62 162 3.0 9.0 0.00 0.13 0.13 90 1007.6
20171023174154 62 161 2.0 11.0 0.00 0.13 0.13 90 1007.9
20171023173542 62 200 2.0 11.0 0.00 0.13 0.13 90 1007.9
20171023172642 62 184 3.0 11.0 0.00 0.13 0.13 90 1008.3
20171023172028 62 185 2.0 8.0 0.04 0.13 0.13 90 1008.5
20171023171103 62 0 2.0 7.0 0.09 0.13 0.13 90 1008.5
20171023170756 62 124 2.0 7.0 0.09 0.13 0.13 89 1008.8
20171023170452 61 136 2.0 7.0 0.09 0.12 0.12 89 1009.1
20171023170153 61 202 2.0 9.0 0.17 0.12 0.12 89 1009.3
20171023165546 61 167 2.0 9.0 0.10 0.09 0.10 89 1009.6
20171023165235 61 161 2.0 9.0 0.10 0.09 0.10 88 1009.8
20171023164934 61 213 2.0 9.0 0.00 0.09 0.09 88 1010.0
20171023164634 61 123 2.0 9.0 0.00 0.08 0.08 88 1010.0
20171023164324 61 131 2.0 9.0 0.00 0.08 0.08 88 1010.2
20171023164022 61 177 2.0 7.0 0.04 0.08 0.08 88 1010.2
20171023163709 61 131 2.0 7.0 0.05 0.08 0.08 88 1010.2
20171023162443 61 157 2.0 7.0 0.06 0.06 0.06 87 1010.6
20171023162131 61 177 2.0 7.0 0.09 0.06 0.06 87 1010.5
20171023161512 62 156 1.0 9.0 0.09 0.06 0.06 86 1010.5
20171023161212 62 138 1.0 9.0 0.09 0.06 0.06 86 1010.6
20171023160903 62 162 1.0 9.0 0.06 0.04 0.05 85 1010.7
20171023160555 62 221 1.0 9.0 0.06 0.04 0.05 85 1010.7
20171023160241 62 137 1.0 9.0 0.08 0.04 0.04 84 1010.8
20171023155939 62 105 1.0 9.0 0.09 0.04 0.04 83 1010.9
20171023155628 62 226 2.0 8.0 0.09 0.04 0.04 83 1010.8
20171023155020 63 116 3.0 9.0 0.10 0.03 0.03 81 1010.7
20171023154054 64 193 2.0 9.0 0.00 0.01 0.01 79 1011.1
20171023153737 64 112 2.0 9.0 0.00 0.01 0.01 78 1011.2
20171023153433 64 13 2.0 9.0 0.00 0.00 0.00 77 1011.2
20171023153121 64 189 2.0 9.0 0.00 0.00 0.00 77 1011.4
20171023152824 64 138 2.0 9.0 0.00 0.00 0.00 76 1011.4
20171023152525 65 159 2.0 9.0 0.00 0.00 0.00 75 1011.4
20171023151616 65 91 2.0 9.0 0.00 0.00 0.00 74 1011.6
20171023151310 65 202 1.0 9.0 0.00 0.00 0.00 74 1011.7
20171023145134 66 157 3.0 9.0 0.00 0.00 0.00 70 1011.9
20171023144829 65 141 3.0 9.0 0.00 0.00 0.00 70 1012.0
20171023144518 65 153 3.0 9.0 0.00 0.00 0.00 70 1012.1
20171023144219 65 260 3.0 9.0 0.00 0.00 0.00 71 1012.1
20171023143603 65 136 1.0 8.0 0.00 0.00 0.00 71 1012.3
20171023143251 65 155 1.0 8.0 0.00 0.00 0.00 72 1012.4
20171023142951 65 308 1.0 8.0 0.00 0.00 0.00 71 1012.4
20171023142332 65 23 2.0 7.0 0.00 0.00 0.00 72 1012.6
20171023142036 65 194 2.0 7.0 0.00 0.00 0.00 72 1012.6
20171023141129 64 226 2.0 6.0 0.00 0.00 0.00 72 1012.8
20171023140827 64 111 2.0 6.0 0.00 0.00 0.00 72 1012.8
20171023140530 64 152 2.0 6.0 0.00 0.00 0.00 72 1012.9
20171023135921 64 203 1.0 7.0 0.00 0.00 0.00 73 1013.0
20171023135617 64 186 1.0 7.0 0.00 0.00 0.00 73 1013.0
20171023134647 63 192 1.0 7.0 0.00 0.00 0.00 74 1013.2
20171023134347 63 123 1.0 7.0 0.00 0.00 0.00 74 1013.2
20171023132824 62 138 0.0 4.0 0.00 0.00 0.00 75 1013.3
20171023132202 62 11 0.0 4.0 0.00 0.00 0.00 75 1013.5
20171023131550 61 112 0.0 4.0 0.00 0.00 0.00 75 1013.6
20171023131249 61 181 0.0 2.0 0.00 0.00 0.00 76 1013.7
20171023130938 61 126 0.0 4.0 0.00 0.00 0.00 76 1013.7
20171023130634 61 180 0.0 4.0 0.00 0.00 0.00 76 1013.7
20171023130022 61 108 0.0 4.0 0.00 0.00 0.00 76 1013.6
20171023125108 60 163 0.0 4.0 0.00 0.00 0.00 76 1013.9
20171023124805 60 132 1.0 4.0 0.00 0.00 0.00 76 1013.9
20171023124455 60 96 0.0 4.0 0.00 0.00 0.00 76 1013.8
20171023124147 60 154 0.0 3.0 0.00 0.00 0.00 77 1013.9
20171023123834 59 184 0.0 1.0 0.00 0.00 0.00 77 1014.0
20171023123534 59 103 0.0 3.0 0.00 0.00 0.00 77 1013.9
20171023122927 59 145 0.0 3.0 0.00 0.00 0.00 77 1013.9
20171023122629 59 161 0.0 3.0 0.00 0.00 0.00 77 1014.0
20171023122019 59 128 0.0 1.0 0.00 0.00 0.00 77 1014.0
20171023121124 59 105 0.0 2.0 0.00 0.00 0.00 76 1014.2
20171023120515 60 124 0.0 1.0 0.00 0.00 0.00 76 1014.3
20171023115909 60 134 0.0 0.0 0.00 0.00 0.00 76 1014.4
20171023114336 59 105 0.0 6.0 0.00 0.00 0.00 76 1014.5
20171023114041 59 138 0.0 6.0 0.00 0.00 0.00 76 1014.6
20171023112509 59 172 0.0 3.0 0.00 0.00 0.00 76 1014.6
20171023112205 59 146 0.0 3.0 0.00 0.00 0.00 76 1014.6
20171023111906 59 83 0.0 3.0 0.00 0.00 0.00 76 1014.6
20171023110650 59 151 0.0 4.0 0.00 0.00 0.00 76 1014.8
20171023110351 59 87 0.0 4.0 0.00 0.00 0.00 76 1014.9
20171023105427 59 209 0.0 4.0 0.00 0.00 0.00 75 1015.0
20171023104518 59 196 1.0 5.0 0.00 0.00 0.00 75 1015.1
20171023104209 59 109 0.0 5.0 0.00 0.00 0.00 75 1015.1
20171023103600 59 134 0.0 3.0 0.00 0.00 0.00 75 1015.2
20171023103302 59 128 0.0 4.0 0.00 0.00 0.00 75 1015.2
20171023103005 59 98 0.0 4.0 0.00 0.00 0.00 75 1015.3
20171023102707 59 244 0.0 4.0 0.00 0.00 0.00 75 1015.3
20171023102403 59 133 0.0 5.0 0.00 0.00 0.00 75 1015.3
20171023101800 59 170 0.0 5.0 0.00 0.00 0.00 75 1015.3
20171023101448 59 161 1.0 5.0 0.00 0.00 0.00 75 1015.4
20171023101138 58 132 0.0 5.0 0.00 0.00 0.00 75 1015.4
20171023100535 58 210 0.0 5.0 0.00 0.00 0.00 75 1015.4
20171023100225 58 123 0.0 4.0 0.00 0.00 0.00 76 1015.4
20171023095925 58 146 0.0 4.0 0.00 0.00 0.00 75 1015.5
20171023093756 58 174 0.0 5.0 0.00 0.00 0.00 77 1016.0
20171023093137 57 167 0.0 2.0 0.00 0.00 0.00 78 1016.0
20171023092529 57 127 0.0 2.0 0.00 0.00 0.00 78 1016.1
20171023091317 57 147 0.0 0.0 0.00 0.00 0.00 77 1016.4
20171023090705 57 147 0.0 0.0 0.00 0.00 0.00 76 1016.5
20171023090049 57 147 0.0 0.0 0.00 0.00 0.00 77 1016.6
20171023085135 57 147 0.0 0.0 0.00 0.00 0.00 77 1016.8
20171023084518 56 147 0.0 0.0 0.00 0.00 0.00 77 1016.7
20171023084221 56 147 0.0 0.0 0.00 0.00 0.00 76 1016.8
20171023083917 57 147 0.0 0.0 0.00 0.00 0.00 77 1016.8
20171023083611 57 147 0.0 0.0 0.00 0.00 0.00 77 1016.8
20171023083004 57 147 0.0 0.0 0.00 0.00 0.00 76 1016.9
20171023082704 57 147 0.0 0.0 0.00 0.00 0.00 76 1016.9
20171023082402 57 147 0.0 0.0 0.00 0.00 0.00 76 1016.9
20171023082100 57 147 0.0 0.0 0.00 0.00 0.00 76 1016.9
20171023081757 57 147 0.0 0.0 0.00 0.00 0.00 76 1016.9
20171023080854 57 147 0.0 0.0 0.00 0.00 0.00 76 1017.0
20171023080550 57 147 0.0 0.0 0.00 0.00 0.00 76 1017.0
20171023075938 57 147 0.0 0.0 0.00 0.00 0.00 76 1017.0
20171023075635 57 147 0.0 0.0 0.00 0.00 0.00 76 1017.1
20171023074713 57 147 0.0 0.0 0.00 0.00 0.00 76 1017.2
20171023074405 57 147 0.0 0.0 0.00 0.00 0.00 76 1017.3
20171023074053 57 116 0.0 0.0 0.00 0.00 0.00 76 1017.3
20171023073742 57 115 0.0 1.0 0.00 0.00 0.00 76 1017.4
20171023073441 57 116 0.0 1.0 0.00 0.00 0.00 76 1017.4
20171023073133 57 116 0.0 1.0 0.00 0.00 0.00 76 1017.5
20171023072532 57 116 0.0 0.0 0.00 0.00 0.00 76 1017.6
20171023071912 57 116 0.0 2.0 0.00 0.00 0.00 76 1017.6
20171023071605 57 104 0.0 2.0 0.00 0.00 0.00 76 1017.7
20171023070653 57 167 0.0 0.0 0.00 0.00 0.00 76 1017.8
20171023070043 57 167 0.0 0.0 0.00 0.00 0.00 75 1017.8
20171023065133 57 167 0.0 0.0 0.00 0.00 0.00 75 1018.0
20171023064823 57 167 0.0 0.0 0.00 0.00 0.00 75 1018.0
20171023064216 57 167 0.0 0.0 0.00 0.00 0.00 75 1018.0
20171023063553 57 167 0.0 0.0 0.00 0.00 0.00 75 1018.1
20171023063255 57 167 0.0 2.0 0.00 0.00 0.00 74 1018.1
20171023062947 57 125 0.0 2.0 0.00 0.00 0.00 75 1018.1
20171023062635 57 142 0.0 2.0 0.00 0.00 0.00 75 1018.1
20171023062322 57 142 0.0 2.0 0.00 0.00 0.00 75 1018.1
20171023061056 57 138 0.0 2.0 0.00 0.00 0.00 75 1018.2
20171023060447 58 129 0.0 0.0 0.00 0.00 0.00 74 1018.2
20171023060138 58 128 0.0 0.0 0.00 0.00 0.00 74 1018.1
20171023055825 58 128 0.0 0.0 0.00 0.00 0.00 74 1018.2
20171023055512 58 128 0.0 1.0 0.00 0.00 0.00 74 1018.1
20171023055201 58 128 0.0 0.0 0.00 0.00 0.00 74 1018.0
20171023054251 58 128 0.0 0.0 0.00 0.00 0.00 73 1018.1
20171023053644 58 128 0.0 0.0 0.00 0.00 0.00 73 1018.3
20171023052727 58 137 0.0 2.0 0.00 0.00 0.00 73 1018.3
20171023052117 58 167 0.0 2.0 0.00 0.00 0.00 73 1018.3
20171023051815 58 194 0.0 0.0 0.00 0.00 0.00 73 1018.3
20171023051510 58 194 0.0 0.0 0.00 0.00 0.00 74 1018.4
20171023051210 58 194 0.0 2.0 0.00 0.00 0.00 74 1018.5
20171023050858 58 211 0.0 2.0 0.00 0.00 0.00 74 1018.4
20171023050555 58 146 0.0 2.0 0.00 0.00 0.00 74 1018.5
20171023050255 58 169 0.0 0.0 0.00 0.00 0.00 73 1018.6
20171023045955 58 154 0.0 1.0 0.00 0.00 0.00 73 1018.6
20171023045332 58 142 0.0 1.0 0.00 0.00 0.00 73 1018.5
20171023044712 59 194 0.0 0.0 0.00 0.00 0.00 73 1018.7
20171023043754 59 150 0.0 1.0 0.00 0.00 0.00 72 1018.8
20171023043449 59 151 0.0 1.0 0.00 0.00 0.00 72 1018.7
20171023043146 59 150 0.0 1.0 0.00 0.00 0.00 72 1018.7
20171023042840 59 150 0.0 0.0 0.00 0.00 0.00 72 1018.7
20171023042541 59 151 0.0 0.0 0.00 0.00 0.00 72 1018.9
20171023042244 59 151 0.0 0.0 0.00 0.00 0.00 72 1018.9
20171023041320 59 151 0.0 0.0 0.00 0.00 0.00 71 1019.0
20171023040407 59 151 0.0 0.0 0.00 0.00 0.00 72 1018.9
20171023035122 59 151 0.0 0.0 0.00 0.00 0.00 70 1019.0
20171023034511 59 151 0.0 0.0 0.00 0.00 0.00 70 1019.0
20171023034210 59 151 0.0 0.0 0.00 0.00 0.00 70 1019.0
20171023033558 59 151 0.0 0.0 0.00 0.00 0.00 70 1019.0
20171023032953 59 151 0.0 0.0 0.00 0.00 0.00 70 1019.1
20171023032644 59 151 0.0 0.0 0.00 0.00 0.00 70 1019.2
20171023032333 59 150 0.0 0.0 0.00 0.00 0.00 70 1019.2
20171023032035 59 151 0.0 0.0 0.00 0.00 0.00 70 1019.2
20171023031723 60 151 0.0 0.0 0.00 0.00 0.00 70 1019.2
20171023031414 60 151 0.0 0.0 0.00 0.00 0.00 70 1019.2
20171023030449 60 150 0.0 0.0 0.00 0.00 0.00 70 1019.4
20171023025824 60 150 0.0 0.0 0.00 0.00 0.00 69 1019.6
20171023025213 60 151 0.0 0.0 0.00 0.00 0.00 69 1019.5
20171023024900 60 150 0.0 0.0 0.00 0.00 0.00 69 1019.6
20171023023647 60 168 0.0 0.0 0.00 0.00 0.00 69 1019.7
20171023022735 60 168 0.0 0.0 0.00 0.00 0.00 68 1019.8
20171023020312 61 128 0.0 0.0 0.00 0.00 0.00 66 1019.9
20171023015353 61 128 0.0 0.0 0.00 0.00 0.00 65 1019.9
20171023015055 62 128 0.0 1.0 0.00 0.00 0.00 65 1019.9
20171023014754 62 173 0.0 0.0 0.00 0.00 0.00 65 1020.0
20171023014142 62 135 0.0 0.0 0.00 0.00 0.00 64 1020.0
20171023013840 62 135 0.0 1.0 0.00 0.00 0.00 64 1020.0
20171023013232 62 135 0.0 0.0 0.00 0.00 0.00 64 1020.0
20171023012918 62 135 0.0 0.0 0.00 0.00 0.00 63 1020.0
20171023011712 63 136 0.0 1.0 0.00 0.00 0.00 63 1019.8
20171023011410 63 136 0.0 1.0 0.00 0.00 0.00 62 1019.9
20171023010759 63 130 0.0 0.0 0.00 0.00 0.00 62 1019.9
20171023005843 63 130 0.0 2.0 0.00 0.00 0.00 62 1020.0
20171023005236 63 151 0.0 0.0 0.00 0.00 0.00 61 1020.0
20171023004919 63 151 0.0 0.0 0.00 0.00 0.00 61 1020.1
20171023004620 63 151 0.0 1.0 0.00 0.00 0.00 61 1020.2
20171023003353 63 151 0.0 0.0 0.00 0.00 0.00 61 1020.3
20171023002432 63 154 0.0 1.0 0.00 0.00 0.00 60 1020.3
20171023001814 64 145 0.0 0.0 0.00 0.00 0.00 60 1020.3
20171022235936 64 145 0.0 0.0 0.00 0.00 0.00 58 1020.3
20171022235312 64 145 0.0 1.0 0.00 0.00 0.00 57 1020.3
20171022233754 65 146 0.0 2.0 0.00 0.00 0.00 56 1020.2
20171022232842 65 157 0.0 2.0 0.00 0.00 0.00 55 1020.3
20171022231928 65 138 0.0 2.0 0.00 0.00 0.00 55 1020.3
20171022231621 66 175 0.0 1.0 0.00 0.00 0.00 54 1020.3
20171022231308 66 136 0.0 1.0 0.00 0.00 0.00 54 1020.2
20171022230707 66 126 0.0 0.0 0.00 0.00 0.00 53 1020.4
20171022230106 67 126 0.0 1.0 0.00 0.00 0.00 52 1020.4
20171022225804 67 126 0.0 1.0 0.00 0.00 0.00 52 1020.5
20171022225502 67 126 0.0 0.0 0.00 0.00 0.00 52 1020.4
20171022225200 67 126 0.0 0.0 0.00 0.00 0.00 52 1020.4
20171022224848 67 126 0.0 0.0 0.00 0.00 0.00 51 1020.4
20171022224238 67 126 0.0 0.0 0.00 0.00 0.00 51 1020.3
20171022223936 67 126 0.0 0.0 0.00 0.00 0.00 51 1020.5
20171022222718 68 126 0.0 0.0 0.00 0.00 0.00 50 1020.6
20171022222111 69 126 0.0 0.0 0.00 0.00 0.00 49 1020.6
20171022220859 70 157 0.0 0.0 0.00 0.00 0.00 48 1020.5
20171022215937 70 156 0.0 3.0 0.00 0.00 0.00 47 1020.5
20171022215339 71 138 0.0 3.0 0.00 0.00 0.00 47 1020.6
20171022215032 71 197 0.0 3.0 0.00 0.00 0.00 46 1020.7
20171022214720 72 202 0.0 3.0 0.00 0.00 0.00 47 1020.8
20171022214115 72 209 0.0 0.0 0.00 0.00 0.00 47 1020.8
20171022213806 72 209 0.0 2.0 0.00 0.00 0.00 46 1020.8
20171022213456 73 209 0.0 2.0 0.00 0.00 0.00 46 1020.8
20171022213143 73 217 0.0 2.0 0.00 0.00 0.00 44 1020.8
20171022212522 73 196 0.0 4.0 0.00 0.00 0.00 45 1020.7
20171022212214 73 174 0.0 4.0 0.00 0.00 0.00 45 1020.6
20171022211556 73 201 1.0 7.0 0.00 0.00 0.00 43 1020.6
20171022210334 74 168 1.0 7.0 0.00 0.00 0.00 42 1020.6